Wind_Speed
12 12 12 12 13 14 14 14 13 11 8 7 6 7 9 10 10 9 8 7 7 6 6 6 6 5 4 4 3 3 2 2 1 1 2 3 4 4 5 5 6 6 7 7 8 7 7 7 6
15 14 14 14 15 16 17 17 15 14 13 11 8 7 9 11 10 9 10 8 7 7 7 7 6 5 4 3 2 2 1 1 1 3 4 5 5 6 6 6 7 7 7 8 8 8 8 7 6
18 17 16 16 17 18 19 19 18 17 14 12 9 8 8 10 10 11 10 9 8 9 9 8 6 5 3 2 1 0 1 2 3 4 5 6 7 7 8 8 9 9 9 9 9 8 8 8 7
19 18 18 19 20 21 21 21 21 19 17 15 13 10 8 8 10 10 10 10 10 10 9 8 6 5 3 2 1 1 2 3 4 6 7 8 9 9 10 10 11 11 12 12 11 10 9 8 8
19 19 20 21 23 23 23 23 22 21 19 17 15 12 9 8 9 9 10 11 12 12 10 8 6 4 3 2 2 3 4 5 6 8 9 10 11 12 12 13 13 14 14 14 13 12 11 10 9
20 20 21 22 25 25 26 25 24 22 20 19 17 13 10 9 10 11 12 13 14 13 11 8 6 5 4 4 4 5 6 7 9 10 11 12 13 14 15 15 15 16 17 17 16 14 13 12 11
19 20 21 22 24 26 27 26 25 24 22 20 18 14 10 9 10 12 14 15 15 14 11 9 7 6 5 6 7 8 9 10 12 13 13 14 15 16 17 17 17 17 18 17 16 15 14 13 12
18 19 19 20 21 24 25 25 25 25 23 21 18 14 11 9 10 13 16 17 15 14 12 9 8 7 7 8 9 10 11 12 13 14 14 15 16 17 17 17 17 17 17 16 16 16 14 13 12
16 16 16 16 17 19 21 22 23 23 22 21 18 15 12 11 11 13 16 17 16 15 13 10 9 8 9 10 11 12 13 13 14 14 15 16 17 17 16 16 16 15 15 15 16 15 13 13 11
14 14 14 14 14 15 17 19 21 21 19 19 18 16 13 12 13 14 17 17 17 17 15 12 10 9 10 11 12 13 13 13 14 14 15 15 16 16 16 15 15 14 14 14 14 13 13 13 12
12 12 12 12 13 13 15 16 17 17 17 18 17 16 15 14 15 17 19 19 19 19 16 14 11 11 11 12 13 13 13 13 14 14 15 15 15 15 14 13 14 14 14 14 14 14 14 13 12
10 10 11 12 13 14 14 15 14 15 16 15 15 16 15 15 15 16 18 19 20 19 17 14 12 11 11 12 12 12 12 12 13 13 13 13 13 13 12 12 12 12 13 13 13 13 13 13 13
10 11 12 13 13 13 14 14 14 14 14 14 14 15 15 15 15 17 18 20 20 18 17 14 12 11 11 11 10 10 11 11 11 11 11 11 10 10 10 10 10 11 12 12 12 13 13 13 12
11 12 13 13 14 14 14 14 15 15 14 14 14 14 15 16 16 19 20 20 19 18 16 14 12 10 10 9 8 8 9 9 9 8 8 8 8 8 8 9 9 10 10 11 11 11 12 12 13
12 12 13 14 15 15 14 15 15 16 14 13 13 13 14 15 17 18 21 20 18 16 14 13 11 9 7 7 7 7 7 7 7 7 7 7 7 7 7 7 8 8 9 9 10 10 11 11 12
11 11 13 14 15 16 16 17 17 17 15 12 10 10 11 14 16 17 18 19 16 14 13 11 9 8 7 6 6 5 5 5 5 5 5 5 6 6 6 6 6 7 8 8 9 9 9 10 11
11 11 12 14 15 16 17 18 18 17 15 11 10 9 9 12 14 16 17 17 15 14 13 11 9 8 6 5 5 4 3 4 3 3 4 4 5 6 6 6 6 7 7 7 8 8 9 10 10
12 11 12 15 16 17 18 18 18 17 14 11 8 7 8 11 13 14 16 16 15 14 12 10 9 8 6 5 3 3 3 3 3 4 4 5 5 6 6 6 7 7 7 7 7 8 8 9 10
13 13 13 14 15 16 17 17 16 14 11 10 7 3 6 10 12 13 16 17 15 14 12 10 8 7 6 4 3 3 3 3 3 4 4 5 5 6 6 6 7 7 7 7 8 8 9 9 10
13 13 13 13 15 15 15 15 14 11 10 9 7 2 5 8 10 13 15 15 14 13 11 9 8 7 6 4 3 2 3 3 4 4 4 5 5 6 6 7 7 8 8 8 9 9 10 10 10
12 13 13 13 14 14 14 14 13 10 9 8 6 5 5 7 10 12 13 15 14 12 11 10 8 7 6 4 3 3 3 3 3 4 4 5 6 6 7 7 8 9 9 8 8 9 9 10 11
12 13 13 13 13 13 13 13 12 9 7 6 6 6 6 8 9 11 14 14 13 12 10 9 8 6 5 4 4 4 3 3 3 3 4 5 5 6 7 7 8 8 9 9 9 9 9 10 11
13 13 13 13 13 12 12 12 10 8 7 6 5 5 6 6 8 10 13 12 12 11 9 8 7 6 5 5 5 4 4 4 4 4 4 5 6 6 7 7 8 8 8 9 10 10 11 11 12
13 13 12 12 12 11 11 10 9 7 6 5 4 4 4 4 6 8 10 10 10 9 8 7 6 6 6 6 5 5 5 4 4 4 5 5 6 6 7 7 8 8 9 10 11 12 13 13 14
13 13 13 12 12 11 10 9 8 6 6 5 3 2 2 3 5 6 7 8 8 7 7 7 7 7 7 7 6 6 5 5 5 5 5 6 7 7 8 9 10 11 11 12 13 13 15 15 16
15 14 15 15 14 12 9 8 7 6 6 6 4 3 1 2 4 5 6 7 7 7 7 8 8 8 8 8 7 6 6 6 6 7 7 8 9 10 11 12 13 14 15 15 16 17 18 18 19
16 15 16 16 15 12 9 7 7 7 7 7 6 5 4 4 5 6 6 7 7 8 8 9 9 9 9 9 8 8 8 8 8 9 9 10 11 13 14 15 16 17 17 18 18 19 20 20 21
17 17 17 17 17 14 9 7 8 9 9 8 8 7 7 7 7 8 8 9 9 9 10 10 11 11 11 11 11 10 11 10 10 11 12 13 14 15 16 17 18 19 19 20 20 21 21 22 23
18 18 18 18 17 16 12 8 8 9 10 9 9 8 8 9 10 10 11 11 11 11 11 12 12 12 13 13 13 13 13 13 13 13 15 16 17 18 19 20 21 22 22 23 23 24 24 25 25
17 17 18 18 17 15 13 10 11 11 12 11 10 9 9 9 10 11 12 13 13 13 14 14 14 14 15 15 16 16 16 16 16 16 17 19 20 21 22 23 24 24 25 25 26 26 27 27 28
Wind_Direction
317 316 314 310 304 298 292 290 288 287 275 271 252 233 207 190 178 179 183 193 204 208 210 207 201 191 175 153 134 123 114 97 62 352 338 328 323 319 319 321 321 324 328 332 336 338 343 349 351
310 309 307 304 300 298 291 290 287 287 285 276 260 254 233 202 181 176 181 193 207 213 209 201 194 186 173 162 144 121 98 44 347 330 325 322 321 319 318 319 320 322 325 327 329 330 331 335 340
304 303 300 297 296 293 290 289 289 292 286 279 272 272 243 210 184 178 184 192 209 217 213 203 194 186 179 175 167 124 5 333 323 324 324 322 320 318 317 316 317 318 318 319 322 325 326 327 328
300 297 294 291 290 287 286 287 289 292 292 289 284 286 265 224 187 182 192 197 211 218 215 205 196 191 190 201 229 290 312 311 310 312 313 313 313 313 312 312 312 313 313 312 312 314 315 317 318
300 296 290 286 283 283 284 285 289 291 292 294 292 289 278 233 204 202 205 211 215 218 215 211 206 208 220 241 272 289 299 304 304 303 304 304 305 305 306 306 305 306 307 307 305 305 305 305 307
301 296 287 283 280 280 279 282 284 286 289 291 291 287 283 249 222 215 216 216 218 221 222 219 218 227 243 265 280 290 296 300 299 298 299 301 301 301 300 301 298 300 301 301 300 299 299 297 299
305 301 292 286 282 281 281 283 283 282 285 290 288 283 284 263 234 225 216 217 224 229 231 228 231 244 262 276 286 292 296 296 295 294 296 298 300 300 297 297 295 295 297 297 296 294 292 290 291
314 307 301 296 291 286 286 285 284 282 282 284 286 280 280 261 240 230 223 221 224 227 227 230 238 252 265 277 286 290 293 295 295 295 296 298 298 297 296 294 293 293 293 293 291 290 287 284 283
323 316 313 308 302 296 292 288 285 283 280 278 281 279 275 256 239 229 226 224 221 220 223 231 240 253 266 277 284 290 292 294 296 296 296 296 297 296 293 291 292 290 289 291 291 288 285 281 280
334 331 326 319 314 307 302 296 292 285 281 276 276 273 270 255 240 229 226 223 222 222 225 230 242 255 267 277 283 289 293 296 297 298 296 295 294 293 291 288 288 286 287 288 288 289 287 283 278
344 346 341 334 328 322 316 309 302 294 285 277 275 273 263 253 244 231 225 221 219 219 224 231 244 255 266 276 283 289 294 296 298 299 298 295 294 292 290 287 287 285 284 283 282 283 283 283 281
350 354 352 344 337 330 327 321 313 303 294 283 274 267 261 252 241 230 224 219 216 219 220 228 242 253 264 273 281 287 292 297 299 301 301 298 296 294 292 288 286 286 286 284 282 281 280 280 281
344 351 352 348 344 339 337 335 323 311 301 291 275 265 260 247 231 225 218 214 215 218 218 224 236 248 258 267 276 284 291 298 302 303 302 300 298 296 294 292 290 290 289 287 283 281 279 278 277
342 346 353 354 347 341 342 340 333 324 309 297 282 267 258 246 235 225 217 211 211 209 211 220 231 242 252 263 273 282 289 297 305 306 307 304 300 298 298 297 297 296 293 291 289 285 283 280 278
344 346 352 356 352 348 347 343 335 330 320 305 290 274 254 240 230 220 212 205 204 205 208 216 225 231 242 258 267 275 286 298 303 304 305 305 303 304 304 304 306 304 300 298 296 292 289 285 282
346 348 351 356 357 349 347 344 341 335 331 318 300 279 248 224 218 210 202 200 200 199 200 205 210 219 231 246 259 274 285 291 296 300 305 310 312 312 313 312 311 311 310 307 306 301 295 291 288
342 346 349 350 353 349 343 339 339 339 339 329 303 281 244 218 212 205 201 195 191 191 194 200 205 211 219 238 254 267 275 282 296 307 315 321 326 328 328 325 321 319 318 316 314 310 303 298 295
341 342 345 347 351 349 342 339 337 337 339 339 315 279 240 215 204 201 192 186 184 186 186 189 194 200 209 220 229 244 261 275 297 309 317 324 330 334 334 331 326 322 318 316 316 315 312 307 302
341 345 347 347 348 348 345 343 342 344 345 343 339 284 215 201 197 192 186 183 182 181 178 178 183 188 196 201 213 236 259 280 298 308 316 322 330 337 338 337 334 329 324 319 315 315 315 313 309
334 340 345 347 351 351 350 350 351 354 0 6 14 49 186 191 183 181 180 174 173 172 168 170 176 178 183 193 210 243 267 285 295 300 310 320 329 338 340 339 339 337 332 326 322 318 314 311 310
329 335 339 343 348 349 350 352 354 353 2 20 40 69 135 161 171 172 168 168 168 167 168 170 174 177 187 202 222 248 266 281 288 298 314 329 336 340 342 342 341 341 338 334 330 326 322 316 312
332 334 335 335 340 348 352 355 355 359 14 32 47 71 110 138 156 161 163 164 167 167 169 174 180 184 195 212 230 242 254 268 282 302 323 336 340 343 344 345 346 345 346 346 344 342 336 329 322
333 335 336 334 337 342 346 350 356 360 13 28 47 67 93 123 146 159 166 164 166 168 175 185 190 196 209 220 229 240 251 266 284 304 321 331 336 340 344 345 346 346 347 346 345 343 339 334 328
328 328 333 335 333 339 338 340 348 357 6 15 30 63 92 117 141 152 162 166 167 174 186 196 203 208 217 224 231 240 254 269 284 295 308 320 327 332 333 333 333 332 332 333 333 331 329 327 326
322 324 328 331 333 334 330 329 338 347 355 359 359 28 91 131 149 156 166 176 183 192 200 208 212 217 224 230 235 244 257 269 279 289 300 308 312 315 315 315 316 318 317 317 318 319 319 319 319
312 315 320 324 328 332 328 321 320 326 334 336 329 318 256 189 186 184 187 192 200 208 213 219 224 228 231 235 240 250 261 269 278 287 296 302 306 307 306 307 308 309 310 309 309 310 311 310 310
300 304 309 314 320 323 322 314 302 307 316 322 312 292 268 243 227 222 219 220 224 228 230 233 237 238 241 244 248 256 264 271 279 287 294 300 303 304 304 305 305 305 305 305 306 307 307 308 308
292 299 301 305 308 311 305 299 296 292 295 304 303 291 267 256 249 244 242 242 244 246 245 246 247 249 251 253 256 260 266 272 280 288 294 297 298 299 300 299 300 301 302 303 305 305 304 305 307
291 295 298 298 299 297 291 288 288 282 284 290 295 294 279 264 258 253 253 253 253 254 254 255 255 254 256 258 260 264 268 273 279 285 289 292 295 296 298 298 298 298 298 300 301 302 302 304 306
292 293 296 293 292 290 283 279 276 278 277 278 279 281 277 270 263 259 257 257 257 258 259 258 257 256 258 260 262 265 268 272 277 282 285 288 291 293 295 297 297 298 298 299 300 302 302 304 305
Height
5898 5897 5897 5896 5895 5893 5891 5891 5891 5891 5890 5890 5890 5890 5889 5889 5890 5894 5893 5893 5894 5894 5895 5895 5895 5896 5896 5896 5896 5896 5897 5897 5898 5899 5899 5899 5899 5900 5900 5900 5899 5899 5900 5900 5900 5900 5900 5900 5899
5896 5896 5895 5895 5893 5891 5890 5889 5889 5889 5889 5889 5888 5888 5888 5887 5887 5889 5891 5892 5893 5894 5894 5895 5895 5895 5895 5895 5895 5896 5896 5897 5897 5897 5898 5898 5898 5898 5898 5898 5898 5898 5898 5898 5898 5899 5899 5899 5899
5894 5894 5893 5892 5890 5889 5887 5887 5887 5887 5887 5887 5887 5886 5886 5885 5885 5887 5890 5892 5893 5893 5894 5894 5894 5894 5894 5895 5895 5895 5896 5896 5896 5897 5897 5897 5896 5896 5897 5897 5896 5896 5897 5897 5897 5897 5897 5898 5898
5892 5891 5891 5890 5887 5886 5885 5884 5884 5885 5885 5885 5885 5884 5884 5885 5885 5887 5889 5891 5892 5893 5893 5893 5893 5893 5893 5894 5894 5895 5895 5895 5896 5896 5896 5895 5895 5895 5895 5895 5895 5895 5895 5895 5895 5895 5895 5896 5896
5889 5888 5888 5886 5883 5882 5881 5881 5881 5882 5882 5882 5882 5883 5883 5884 5884 5886 5888 5889 5891 5891 5892 5892 5892 5892 5893 5893 5894 5894 5894 5894 5894 5894 5894 5894 5894 5894 5893 5893 5893 5893 5892 5893 5893 5893 5893 5894 5894
5887 5885 5884 5882 5880 5879 5878 5878 5878 5878 5878 5879 5879 5880 5881 5882 5883 5884 5886 5887 5889 5890 5891 5891 5891 5891 5892 5892 5892 5893 5893 5893 5893 5893 5892 5892 5892 5892 5891 5891 5890 5890 5890 5890 5890 5891 5891 5891 5892
5884 5882 5880 5879 5877 5875 5875 5874 5874 5875 5875 5876 5876 5876 5877 5879 5880 5882 5884 5885 5887 5888 5889 5889 5889 5889 5890 5890 5891 5891 5891 5891 5891 5890 5890 5890 5890 5889 5889 5889 5888 5888 5887 5887 5887 5888 5888 5889 5889
5881 5880 5877 5875 5874 5873 5872 5871 5870 5871 5871 5871 5872 5872 5874 5876 5878 5879 5881 5882 5884 5885 5886 5887 5887 5888 5888 5888 5889 5889 5888 5888 5888 5888 5888 5887 5887 5887 5886 5886 5886 5885 5885 5884 5884 5884 5885 5886 5887
5879 5878 5875 5873 5872 5870 5869 5868 5867 5866 5867 5867 5868 5869 5870 5871 5873 5875 5877 5879 5881 5882 5883 5885 5885 5885 5886 5886 5886 5886 5886 5886 5886 5886 5885 5885 5884 5884 5883 5883 5883 5883 5882 5882 5881 5881 5882 5883 5884
5878 5876 5874 5872 5870 5868 5866 5864 5863 5863 5863 5863 5864 5865 5866 5867 5869 5871 5873 5875 5877 5879 5881 5882 5883 5883 5883 5884 5883 5883 5883 5883 5883 5883 5883 5882 5882 5881 5881 5881 5880 5880 5880 5880 5879 5879 5879 5880 5881
5876 5875 5872 5870 5868 5866 5863 5862 5860 5859 5859 5860 5860 5861 5862 5863 5864 5866 5869 5871 5874 5876 5878 5879 5880 5880 5880 5881 5881 5881 5880 5880 5880 5880 5880 5880 5879 5879 5878 5878 5878 5878 5878 5877 5877 5877 5877 5878 5879
5877 5874 5872 5869 5867 5864 5861 5859 5857 5856 5855 5856 5856 5856 5857 5858 5859 5861 5864 5867 5870 5872 5874 5876 5876 5877 5878 5878 5878 5878 5878 5878 5878 5878 5877 5877 5877 5876 5876 5876 5876 5875 5875 5875 5875 5875 5875 5876 5876
5876 5874 5871 5868 5865 5863 5860 5857 5855 5853 5851 5851 5851 5851 5852 5853 5854 5856 5859 5862 5865 5868 5870 5872 5873 5874 5875 5876 5876 5876 5876 5876 5876 5876 5875 5875 5875 5874 5874 5874 5873 5873 5873 5872 5872 5872 5873 5873 5874
5875 5873 5870 5867 5864 5861 5859 5856 5853 5850 5848 5847 5847 5847 5847 5848 5850 5852 5855 5858 5861 5864 5866 5868 5870 5872 5873 5874 5874 5874 5874 5874 5874 5874 5874 5873 5873 5872 5872 5872 5871 5871 5870 5870 5870 5870 5870 5870 5871
5874 5873 5870 5867 5863 5860 5857 5855 5851 5848 5845 5843 5842 5842 5843 5844 5846 5847 5851 5854 5857 5860 5863 5866 5868 5869 5870 5871 5872 5872 5873 5873 5873 5873 5872 5872 5872 5871 5871 5870 5870 5869 5868 5868 5868 5868 5868 5868 5868
5875 5873 5870 5866 5862 5859 5857 5853 5850 5846 5843 5840 5839 5839 5839 5840 5841 5844 5848 5851 5854 5858 5861 5864 5866 5867 5869 5870 5870 5871 5871 5872 5872 5872 5872 5871 5871 5870 5869 5869 5868 5867 5867 5866 5866 5866 5866 5866 5866
5875 5872 5869 5866 5862 5858 5855 5852 5848 5845 5841 5838 5837 5836 5837 5837 5839 5842 5845 5849 5852 5856 5859 5861 5864 5866 5868 5869 5869 5870 5870 5871 5871 5871 5871 5870 5870 5869 5868 5868 5867 5866 5866 5865 5865 5864 5864 5864 5864
5874 5871 5868 5865 5861 5858 5854 5851 5847 5843 5840 5838 5835 5834 5835 5836 5838 5841 5843 5847 5851 5855 5858 5860 5863 5865 5867 5868 5868 5869 5869 5870 5870 5870 5870 5870 5869 5868 5867 5866 5866 5865 5865 5864 5864 5863 5863 5862 5862
5873 5871 5868 5864 5860 5857 5853 5850 5846 5843 5840 5837 5835 5834 5835 5836 5838 5840 5843 5846 5850 5854 5857 5860 5862 5864 5866 5867 5868 5868 5869 5869 5869 5869 5869 5869 5868 5867 5866 5866 5865 5864 5864 5863 5862 5862 5861 5860 5860
5872 5870 5867 5864 5860 5857 5853 5850 5847 5844 5841 5838 5836 5835 5835 5836 5837 5840 5843 5845 5850 5853 5856 5859 5862 5863 5865 5866 5867 5867 5868 5868 5868 5868 5868 5868 5867 5866 5865 5865 5864 5863 5862 5861 5861 5860 5859 5859 5858
5871 5869 5866 5864 5861 5857 5854 5851 5848 5846 5843 5841 5838 5836 5836 5837 5839 5841 5843 5846 5850 5853 5856 5859 5861 5862 5864 5865 5866 5867 5867 5867 5867 5867 5867 5866 5866 5865 5864 5863 5863 5862 5861 5860 5859 5858 5857 5857 5856
5869 5868 5865 5863 5861 5858 5856 5853 5849 5847 5845 5843 5841 5840 5839 5840 5841 5842 5845 5848 5851 5853 5856 5858 5860 5862 5863 5864 5865 5866 5866 5866 5866 5866 5865 5865 5864 5864 5863 5862 5861 5861 5860 5859 5858 5857 5856 5855 5854
5868 5866 5865 5862 5860 5858 5856 5854 5852 5848 5847 5846 5844 5843 5843 5842 5842 5843 5846 5848 5851 5853 5856 5858 5860 5861 5862 5863 5864 5864 5865 5865 5865 5864 5864 5863 5863 5862 5861 5861 5860 5859 5858 5857 5856 5855 5854 5853 5851
5867 5866 5864 5862 5860 5859 5857 5855 5853 5850 5849 5848 5847 5846 5846 5845 5845 5845 5847 5849 5851 5854 5856 5858 5859 5860 5861 5862 5863 5863 5863 5863 5863 5863 5862 5862 5861 5861 5860 5859 5858 5857 5856 5855 5854 5852 5851 5850 5849
5866 5865 5863 5861 5859 5858 5857 5855 5854 5852 5850 5849 5848 5848 5847 5847 5848 5848 5849 5850 5852 5854 5856 5857 5858 5859 5860 5861 5861 5862 5862 5862 5861 5861 5860 5860 5859 5859 5858 5857 5856 5855 5854 5853 5851 5850 5848 5847 5845
5864 5863 5862 5860 5858 5857 5856 5855 5854 5852 5851 5850 5849 5849 5848 5848 5849 5849 5850 5851 5853 5854 5855 5856 5857 5858 5858 5859 5859 5860 5860 5860 5859 5859 5858 5858 5857 5856 5855 5855 5854 5852 5851 5849 5848 5846 5845 5843 5841
5861 5860 5859 5858 5856 5856 5855 5854 5853 5852 5851 5850 5849 5849 5848 5848 5849 5849 5850 5851 5852 5853 5854 5854 5855 5856 5856 5856 5857 5857 5857 5857 5857 5856 5855 5855 5854 5853 5852 5851 5850 5848 5847 5845 5844 5842 5840 5838 5836
5858 5857 5856 5855 5854 5853 5854 5853 5852 5851 5850 5850 5849 5848 5847 5847 5848 5848 5849 5850 5850 5851 5851 5852 5853 5853 5853 5853 5854 5854 5854 5854 5853 5852 5852 5851 5850 5849 5848 5847 5845 5844 5842 5840 5839 5837 5835 5833 5831
5855 5854 5852 5851 5851 5851 5851 5854 5851 5850 5849 5848 5847 5847 5846 5846 5846 5846 5846 5847 5848 5848 5848 5849 5849 5849 5850 5850 5850 5850 5850 5850 5849 5848 5847 5846 5845 5844 5843 5842 5840 5839 5837 5835 5833 5831 5829 5826 5824
5851 5850 5849 5848 5848 5847 5847 5851 5848 5848 5847 5846 5846 5845 5844 5844 5844 5844 5844 5844 5844 5845 5845 5845 5846 5846 5846 5846 5846 5846 5846 5845 5844 5843 5842 5841 5840 5839 5837 5836 5834 5833 5831 5828 5826 5824 5822 5820 5817